GFSCGP_sfc_temp_000.txt.gz
Temp
47 46 44 47 45 44 41 38 38 41 46 43 43 45 51 51 40 41 39 38 40 41 41 40 40 39 38 37 38 38 38 38 37 35 34 33 33 34 34 35 36 36 35 35
45 43 48 47 44 44 40 36 37 41 41 41 41 41 47 51 45 44 44 40 41 41 39 40 38 37 37 37 37 37 37 37 37 35 35 34 32 33 33 34 34 34 34 33
43 46 48 47 42 42 38 36 35 39 39 39 36 36 38 45 44 45 44 46 43 42 41 39 37 35 35 35 35 37 37 36 36 36 34 33 33 32 30 31 30 31 32 32
45 45 46 42 42 43 36 40 38 37 34 30 38 32 36 43 45 42 42 40 42 41 42 40 38 34 34 35 35 35 36 35 36 34 32 29 27 27 28 29 30 30 30 30
45 42 41 40 42 44 41 40 37 35 31 27 29 25 31 34 40 48 46 42 42 41 41 40 38 38 36 36 34 34 34 34 34 33 31 28 27 27 28 27 28 29 29 30
43 42 44 44 41 40 41 37 34 29 28 21 30 29 29 33 39 42 42 40 39 38 40 40 39 36 36 34 33 32 32 32 32 31 30 27 25 25 26 26 26 27 28 28
38 40 39 42 39 38 38 35 27 23 20 26 27 24 39 41 42 44 44 39 37 37 37 36 36 35 34 32 32 32 32 30 30 28 27 26 25 24 23 25 25 25 25 26
36 38 40 42 43 40 35 36 28 18 18 29 22 25 37 40 42 37 36 36 37 34 37 38 37 36 34 33 31 31 30 28 27 26 26 25 25 25 25 24 24 24 24 24
35 35 38 38 39 40 34 32 34 26 9 15 30 31 37 40 38 38 36 36 35 34 35 36 36 35 32 31 30 30 28 27 26 25 25 23 23 23 23 23 24 23 24 25
44 38 36 36 37 35 35 37 29 28 20 11 27 30 36 44 40 41 36 35 34 32 34 35 35 34 32 31 29 28 26 25 25 25 23 24 22 22 22 22 21 22 22 23
43 42 36 34 33 32 31 31 31 32 26 20 15 36 38 42 42 42 38 38 35 33 34 34 34 32 31 29 27 26 25 24 24 24 23 22 21 21 21 20 20 20 21 21
42 39 35 37 31 32 32 34 37 30 25 21 21 35 39 41 42 40 38 38 34 34 34 34 33 30 28 27 26 24 23 22 23 22 21 20 20 19 18 18 19 20 19 20
42 36 33 34 30 30 31 33 34 33 27 25 23 33 38 38 37 35 35 36 33 32 30 31 30 29 27 25 24 22 21 21 21 20 18 18 17 17 17 17 17 18 17 17
49 38 35 37 38 34 29 32 34 37 30 33 33 38 46 48 49 51 43 34 33 33 32 32 31 28 26 25 22 20 19 20 19 18 16 16 16 16 15 15 15 15 15 14
43 38 41 43 46 33 34 35 35 30 35 32 37 37 43 47 49 51 52 42 33 31 30 31 30 26 24 22 21 20 17 17 17 15 14 14 15 15 14 13 13 12 12 12
34 36 38 36 40 34 33 38 39 33 36 35 38 38 51 53 54 51 50 41 33 31 32 32 31 28 26 26 20 23 17 16 16 12 13 14 13 12 11 10 10 9 9 9
29 31 23 30 31 28 25 34 40 42 42 38 31 40 48 47 47 47 45 35 34 33 32 31 30 29 28 24 24 16 15 14 12 13 11 9 9 7 7 7 7 6 5 7
30 30 33 30 22 20 40 47 39 39 42 44 44 46 48 48 49 35 38 36 33 33 32 31 29 24 22 18 16 15 14 13 12 10 7 7 7 4 5 4 3 4 5 6
41 34 30 28 27 34 38 36 33 32 38 46 40 45 46 47 34 40 36 36 36 33 32 30 25 20 17 15 14 13 12 11 10 8 7 6 4 1 1 -2 1 3 5 4
39 39 35 31 24 22 37 41 34 35 32 50 48 45 44 34 31 41 35 31 29 30 27 22 20 17 15 12 13 12 10 9 7 6 5 4 3 -2 -3 -0 -0 3 2 5
26 30 27 29 27 31 43 30 34 27 38 44 49 47 45 35 42 34 28 26 26 24 21 19 17 14 13 12 11 10 9 6 5 4 2 2 0 -3 -3 -0 1 1 2 4
32 27 27 27 26 25 38 32 36 46 52 46 38 36 36 38 29 26 26 23 21 18 18 16 13 11 11 11 10 8 7 5 4 1 -1 -4 -6 -5 0 -3 -2 0 1 2
33 39 37 35 35 41 39 47 50 51 51 46 36 34 38 32 29 26 24 22 20 18 16 15 12 9 9 9 8 7 4 4 1 -7 -8 -12 -5 -2 -2 -3 -2 -0 2 3
39 46 39 40 42 41 40 44 50 51 47 47 36 33 34 32 28 25 23 21 18 17 14 12 10 7 4 5 4 4 2 -0 -10 -10 -5 -2 -3 -4 -1 0 2 0 2 4
42 42 39 39 44 46 48 49 49 43 37 36 33 34 35 32 27 25 22 19 18 16 13 13 11 8 5 3 0 -1 -3 -7 -8 -5 -2 -4 -5 -7 -3 1 -1 4 7 10
43 42 38 37 46 46 47 52 52 45 41 37 36 30 33 33 27 25 22 20 17 14 12 11 10 7 4 3 -1 -5 -8 -10 -11 -5 -5 -6 -5 -5 -3 -3 -2 6 10 12

GFSCGP_sfc_temp_003.txt.gz
Temp
47 46 44 48 46 45 43 40 41 43 46 44 44 45 51 55 45 46 44 42 43 44 48 44 43 43 42 42 42 42 42 42 43 41 40 39 39 40 40 41 41 40 40 39
44 44 48 48 45 44 41 39 39 42 42 42 41 42 49 52 53 55 49 44 44 44 41 42 42 41 41 41 41 41 41 41 41 40 39 39 39 39 39 40 39 39 38 37
42 45 46 47 41 41 39 38 38 41 40 39 37 37 39 46 47 48 47 48 46 45 42 42 41 40 40 40 40 40 40 40 40 39 38 37 37 37 37 38 37 37 36 36
44 45 46 41 42 43 38 41 39 38 36 32 39 35 38 45 47 47 46 43 46 44 45 43 42 40 40 40 40 40 39 39 39 38 36 34 34 34 35 35 35 35 35 34
45 41 40 40 43 44 41 40 39 37 34 30 32 28 38 36 41 49 50 45 44 44 44 43 42 42 41 40 39 39 38 37 37 36 36 34 32 32 33 33 32 33 33 34
42 42 44 44 40 40 41 38 36 31 30 22 35 34 35 36 42 47 47 48 46 41 42 44 43 43 40 39 38 37 36 36 36 35 34 32 30 30 30 30 30 31 31 32
38 39 40 42 40 39 39 37 29 26 22 28 27 26 42 42 43 48 50 47 44 41 40 41 40 39 39 37 36 35 35 34 34 33 32 31 30 29 28 28 28 28 29 29
38 41 39 41 44 41 36 38 30 22 21 36 22 26 41 42 49 43 43 42 40 40 39 40 40 39 40 37 36 36 34 32 31 31 30 29 28 28 28 27 27 26 26 27
36 37 37 38 39 41 34 32 36 26 10 19 35 37 40 41 41 40 40 38 40 40 37 38 39 40 39 37 35 34 32 31 30 29 28 27 27 26 25 25 25 25 26 26
46 39 37 36 37 35 36 38 30 29 22 15 31 38 43 40 44 44 41 40 42 40 36 37 38 39 39 38 35 33 31 30 29 28 27 27 25 25 24 24 23 23 24 24
45 44 36 35 33 33 32 32 32 33 28 23 22 39 42 45 45 46 46 42 42 41 37 36 37 38 38 35 32 30 28 27 27 26 25 24 23 23 22 22 22 21 22 22
43 40 36 31 30 33 33 37 38 32 28 23 24 37 44 45 45 44 44 42 42 40 37 36 36 36 34 34 30 28 26 26 26 24 23 22 21 21 20 20 20 20 19 20
43 37 28 35 30 31 32 33 37 34 29 35 25 36 48 45 44 42 41 39 40 39 36 33 33 33 34 31 28 25 24 24 23 22 20 19 19 18 18 18 18 18 17 17
49 38 37 38 42 35 29 31 35 37 34 35 35 41 49 52 50 47 42 38 41 39 37 33 32 32 34 30 26 24 23 23 21 19 18 17 17 17 16 16 15 15 15 14
43 38 41 43 45 37 35 35 36 32 36 34 40 39 45 51 51 52 53 53 44 36 33 33 32 32 29 27 25 23 21 19 18 17 15 15 16 15 15 14 14 13 13 12
37 36 37 38 42 36 35 37 41 39 39 36 38 38 52 55 55 52 52 51 50 45 37 34 33 31 28 28 23 24 18 18 17 15 15 15 13 12 12 11 11 10 11 10
34 34 32 29 37 30 25 35 41 43 45 42 35 42 49 48 48 48 50 50 48 46 36 33 32 31 29 28 26 19 17 16 14 15 13 11 10 8 9 9 8 8 7 7
38 35 34 28 29 20 37 44 44 41 42 44 45 47 49 49 51 51 44 46 45 40 35 33 33 30 29 25 20 17 15 15 14 11 9 9 8 6 6 6 5 5 7 7
42 37 29 26 26 34 36 38 35 36 38 48 45 46 49 50 40 44 42 43 45 45 36 33 32 29 22 20 18 15 14 14 13 10 9 7 6 3 3 -1 3 5 5 5
39 39 32 29 24 22 37 45 42 36 31 49 49 48 48 41 34 44 47 41 38 35 32 30 26 22 20 16 16 15 13 12 9 9 8 6 4 -1 -1 1 1 4 2 4
27 31 28 28 27 31 41 39 39 28 37 52 50 49 48 42 46 50 32 29 30 29 26 25 22 20 17 15 16 14 12 10 9 7 5 4 2 -1 -2 -0 1 1 1 4
34 28 28 29 26 24 42 38 36 47 53 52 51 46 42 44 48 36 30 27 24 22 22 22 19 15 14 15 15 12 11 8 6 4 3 -0 -3 -3 1 -6 -3 -1 -0 0
34 39 38 36 35 41 44 46 49 52 50 51 50 43 46 45 42 32 29 24 23 22 19 19 16 12 12 14 15 11 8 7 3 -1 -3 -3 -2 -1 -2 -6 -2 -1 1 2
41 47 40 41 45 40 40 45 50 51 48 50 49 43 40 44 38 30 26 23 21 19 18 16 13 11 9 10 12 9 7 4 -4 -3 0 2 0 -2 -1 0 2 -1 2 4
38 37 38 38 41 47 48 48 48 47 45 38 40 42 40 41 35 32 25 22 21 18 17 15 15 12 8 7 4 4 3 -0 -2 -0 1 -0 -0 -4 -1 1 -1 3 7 11
40 38 36 36 47 46 47 50 50 48 48 48 46 43 36 40 41 31 26 23 20 17 15 14 13 10 6 4 2 -1 -1 0 2 1 -0 -2 -2 -3 -2 -3 -2 6 10 13

GFSCGP_sfc_temp_009.txt.gz
Temp
67 63 62 69 72 69 66 63 62 68 71 62 61 62 67 71 72 71 73 74 76 76 78 72 70 69 66 64 62 61 58 58 58 56 54 54 53 54 54 55 53 52 52 50
61 58 68 72 65 65 65 59 60 67 69 57 59 58 65 68 68 70 70 71 74 77 73 69 67 64 63 61 60 59 58 58 57 57 56 57 56 55 55 54 52 52 50 49
59 68 65 62 63 58 60 58 60 61 65 59 55 54 60 67 68 68 68 70 73 73 72 67 64 61 61 59 58 58 58 58 57 57 55 52 51 51 50 50 50 50 49 47
63 68 64 60 58 63 54 65 62 57 54 50 57 46 59 64 66 66 66 70 75 69 69 67 63 60 58 58 58 58 58 58 57 55 50 48 49 50 53 53 51 49 48 47
62 61 54 55 59 63 58 56 56 55 52 51 53 48 56 55 57 60 66 70 75 69 66 64 61 59 60 57 56 56 57 56 55 52 50 48 48 51 53 50 47 46 47 46
58 58 58 60 53 56 55 54 52 51 50 41 53 52 53 60 61 65 69 72 74 68 65 64 63 61 59 57 54 54 54 53 53 51 49 48 48 48 46 46 44 45 46 46
58 57 59 56 53 53 53 52 46 44 40 40 60 51 57 65 66 67 69 71 71 65 64 63 60 57 56 54 52 52 52 51 51 49 48 48 48 47 46 45 45 44 44 43
54 50 55 56 57 60 49 54 46 36 40 45 44 44 56 67 70 69 69 67 66 64 63 61 60 57 55 53 51 51 49 50 49 48 47 47 47 46 46 45 44 43 42 42
53 52 51 55 55 59 51 44 56 44 37 37 49 58 66 61 63 63 61 63 63 62 61 60 60 58 56 52 50 50 50 49 49 47 46 46 45 44 43 43 42 41 41 40
60 49 57 46 50 51 51 55 44 45 33 34 46 50 53 55 57 60 58 60 64 65 63 62 60 57 56 54 51 50 50 48 48 46 45 44 43 42 42 41 39 38 39 38
58 52 50 47 45 51 44 45 46 47 47 39 37 47 62 62 61 64 62 63 66 66 64 62 60 58 56 54 52 50 49 48 47 45 44 42 41 40 40 38 37 37 36 35
55 47 43 50 60 55 55 53 52 42 40 45 44 45 63 61 62 63 63 64 68 67 67 66 62 58 55 53 52 51 48 47 46 44 42 40 40 38 37 36 36 35 33 33
51 40 36 42 48 45 46 51 52 53 48 41 37 43 64 66 66 67 62 64 63 60 64 65 63 58 56 53 52 50 48 47 45 43 40 38 37 35 35 35 34 33 31 30
49 41 41 38 46 53 46 47 48 47 40 40 42 47 55 59 60 64 65 67 66 64 64 65 61 58 56 53 52 50 47 46 43 40 37 35 34 34 34 33 31 30 29 27
43 32 40 44 48 51 48 47 47 44 45 40 45 47 54 59 60 63 66 66 64 64 64 62 60 60 56 51 50 48 46 43 41 37 35 34 34 33 31 29 27 26 25 24
43 32 35 32 38 40 38 43 46 45 47 47 48 46 58 61 62 61 62 62 60 61 61 60 59 55 50 48 47 43 44 40 38 34 33 33 30 28 26 25 24 23 22 22
34 33 32 29 38 35 30 36 41 44 49 49 42 50 58 57 58 58 60 61 59 59 58 53 55 53 48 47 44 42 41 37 33 31 30 28 26 23 23 22 20 19 19 20
36 33 33 30 34 23 38 49 47 43 46 50 50 53 56 57 60 58 61 59 57 58 56 54 53 53 47 46 42 40 36 32 29 28 25 23 22 20 20 19 18 18 18 18
43 37 32 28 29 37 41 47 45 42 42 50 49 52 54 56 54 53 60 61 58 59 58 57 57 53 47 42 40 35 31 28 27 25 22 21 20 18 17 16 17 18 18 17
40 40 33 31 26 25 41 49 56 53 36 54 54 53 53 53 42 49 59 54 52 52 52 50 46 43 41 37 34 29 26 25 24 23 21 20 18 16 15 15 16 16 15 15
32 32 29 30 28 33 48 51 51 34 41 56 55 54 53 49 51 57 56 51 51 48 43 41 40 37 36 32 29 26 25 23 24 22 18 16 15 14 14 14 14 13 12 14
39 33 30 30 27 26 52 49 41 50 56 57 58 55 52 53 54 53 55 55 47 44 36 36 32 30 29 28 27 25 23 25 21 18 15 13 12 12 11 10 10 10 10 10
31 35 29 33 36 49 48 45 45 48 47 47 44 43 46 48 51 51 50 49 42 41 33 31 29 26 25 26 26 23 24 19 16 14 11 10 10 12 10 7 9 10 11 13
37 38 30 30 36 37 41 44 45 43 38 39 41 41 44 44 45 43 43 42 38 33 31 28 24 22 21 23 25 24 17 16 13 11 10 9 8 9 8 10 11 12 13 13
30 33 31 30 36 40 42 44 44 44 43 41 41 41 42 42 39 42 42 42 42 36 29 26 23 22 21 22 23 16 15 14 12 10 9 8 9 8 9 12 12 13 14 15
34 31 27 26 38 37 38 41 41 39 39 40 39 40 42 42 41 43 43 45 44 36 28 24 24 22 20 21 15 14 13 14 12 10 10 10 9 10 10 10 8 13 14 15

GFSCGP_sfc_temp_015.txt.gz
Temp
53 46 45 53 52 51 49 46 44 55 57 53 54 52 56 60 54 53 58 60 62 62 67 60 61 60 57 54 53 52 50 50 50 47 44 42 44 41 40 41 43 42 42 42
48 43 55 54 53 51 49 47 46 54 55 51 52 52 57 54 58 60 58 60 62 64 58 59 55 55 55 52 52 51 52 50 51 50 49 43 42 39 41 41 41 42 41 41
50 51 56 54 51 50 51 47 49 48 52 48 45 42 48 54 56 60 62 62 63 62 56 54 52 54 54 52 51 51 51 50 51 48 46 41 40 39 39 38 39 39 40 39
48 56 55 49 49 53 48 52 51 49 41 41 43 38 46 50 52 54 58 60 60 53 54 53 52 48 52 53 52 52 50 50 50 47 47 44 45 43 44 45 40 38 38 38
49 49 46 47 53 52 51 48 46 42 39 36 39 36 42 50 48 54 60 61 62 57 55 52 53 55 54 52 51 51 49 49 50 47 48 45 43 44 37 36 38 35 35 36
47 49 50 50 47 50 48 43 42 39 36 32 38 40 43 43 51 52 59 60 61 58 56 54 54 51 50 49 50 50 48 48 48 47 46 45 44 38 35 36 37 36 36 34
43 47 49 51 44 44 43 40 29 27 24 31 43 36 49 50 52 55 58 59 61 53 50 47 48 49 47 46 47 48 47 46 47 47 45 44 44 41 39 38 39 35 35 32
38 42 45 49 51 44 39 43 30 22 30 40 34 31 42 54 58 57 59 62 55 51 50 48 49 49 47 47 46 47 45 47 46 46 44 43 42 42 42 40 39 38 37 35
39 40 44 44 45 49 40 36 46 33 17 24 42 43 51 49 52 52 54 48 51 50 47 48 46 47 47 46 46 47 46 47 46 45 44 42 41 42 41 38 37 37 35 35
49 41 48 43 44 42 42 44 33 32 22 18 38 33 44 51 57 59 48 50 49 48 48 47 47 48 47 48 47 46 47 46 46 44 44 42 41 41 40 36 36 33 33 33
45 44 45 41 38 40 36 38 39 39 33 33 33 40 47 48 48 49 49 49 50 49 48 48 49 49 48 46 45 45 44 44 43 42 42 41 39 38 36 36 35 33 32 31
43 39 32 40 45 43 45 43 44 37 34 33 36 39 59 53 51 51 53 52 50 52 52 50 48 49 44 45 44 44 44 43 43 42 40 39 36 34 35 35 32 31 31 30
42 32 29 31 42 40 40 42 45 44 37 34 29 33 56 57 56 52 50 50 52 53 55 50 48 48 47 46 46 45 44 43 42 40 37 36 34 34 34 33 30 30 29 28
45 34 32 31 40 44 38 40 41 43 35 36 34 36 45 51 53 56 58 61 62 64 53 53 53 50 47 47 47 46 44 43 41 38 37 35 35 34 33 31 30 30 29 27
41 31 33 36 39 41 39 40 41 38 40 33 36 38 43 49 51 54 57 59 59 60 52 53 52 48 47 47 45 45 45 41 39 38 37 36 35 34 31 29 29 28 27 26
40 33 35 32 35 35 34 38 38 38 38 39 41 40 50 53 55 54 55 57 56 58 59 54 50 50 44 44 46 44 45 40 39 38 36 36 32 30 28 29 27 26 25 23
37 33 32 29 35 33 28 34 36 38 42 42 35 43 51 50 52 52 54 55 55 57 57 50 48 46 44 43 43 43 42 38 36 36 34 31 29 27 28 27 26 25 23 23
36 33 32 30 32 23 35 43 41 40 43 46 46 47 50 51 54 55 56 52 52 55 51 46 44 46 42 41 38 41 33 34 34 33 31 29 28 27 27 26 25 23 22 21
40 37 31 28 28 35 36 40 40 37 37 46 43 46 43 39 46 49 42 43 42 43 45 46 43 43 42 41 38 33 32 32 32 31 29 28 27 26 24 23 22 22 21 20
38 39 33 31 26 25 39 39 43 44 31 32 32 31 31 33 28 32 37 40 41 42 42 39 38 39 37 32 29 30 29 29 30 30 29 28 27 25 23 22 21 20 19 19
31 33 28 29 28 31 30 31 36 27 22 29 32 32 31 28 31 35 36 38 41 38 38 40 36 33 30 27 27 27 25 28 27 26 26 25 24 24 23 21 20 18 18 19
24 20 21 23 23 22 30 29 21 26 31 32 32 33 31 33 36 36 37 37 40 38 39 37 33 36 26 27 28 26 26 24 23 23 22 22 23 22 20 18 16 17 17 16
21 21 18 21 18 27 34 33 33 34 31 30 29 31 32 32 33 35 35 36 37 37 36 37 33 35 26 27 28 29 27 24 23 20 19 20 19 19 18 16 15 14 15 14
26 31 23 21 27 30 32 36 37 35 31 33 32 27 29 28 30 30 32 34 35 35 35 37 36 33 32 27 27 29 25 24 20 18 18 16 17 15 16 16 15 15 14 14
23 26 19 21 27 30 32 34 31 31 30 28 27 26 26 28 27 28 28 29 31 34 34 35 34 35 33 30 27 28 23 23 21 20 16 15 16 14 14 16 15 16 17 18
28 25 21 19 30 24 27 28 28 22 22 23 22 22 24 23 22 23 23 26 27 28 30 31 33 34 33 35 30 28 25 22 21 17 16 15 14 14 14 14 14 22 20 23

GFSCGP_sfc_temp_021.txt.gz
Temp
48 43 42 51 48 47 43 40 40 47 53 44 45 48 52 59 58 51 53 57 60 62 67 64 58 54 53 52 53 52 51 52 50 46 44 44 45 43 42 43 43 42 41 40
41 40 52 49 47 45 44 43 42 50 53 45 47 48 54 54 58 61 62 60 62 62 63 64 54 50 51 52 53 52 52 51 51 50 50 49 49 42 45 42 41 42 40 39
47 47 51 48 44 44 42 39 45 44 45 43 41 44 47 50 55 59 61 63 63 62 62 63 53 49 50 51 51 52 51 50 51 51 48 38 39 37 37 37 39 40 40 38
43 50 49 42 42 47 44 46 47 44 36 37 40 36 43 51 54 51 57 61 58 59 60 59 56 49 47 51 51 51 51 49 51 49 46 46 46 45 43 45 42 39 38 38
45 42 41 42 47 47 45 46 44 39 35 32 33 31 38 45 45 51 57 59 61 61 57 59 57 51 51 48 47 49 49 48 50 48 48 47 47 47 42 40 37 38 36 37
45 44 47 46 45 46 45 40 38 33 33 29 37 37 40 40 47 48 53 56 58 61 58 55 51 50 47 43 44 46 47 46 48 47 47 47 47 39 37 36 38 38 37 36
39 41 43 48 42 41 44 37 29 26 23 29 38 33 47 50 51 53 57 57 56 53 53 53 50 48 44 41 41 43 45 45 46 45 46 46 46 43 43 39 40 38 36 35
35 38 42 45 46 41 39 40 29 20 24 37 34 35 49 52 54 53 49 50 52 52 53 50 50 47 43 41 40 44 42 44 44 43 44 45 46 44 43 41 41 39 39 39
34 36 40 42 42 47 36 35 42 31 19 20 38 44 54 46 48 47 51 47 48 49 48 47 46 44 42 41 40 41 41 43 43 43 44 44 44 43 42 39 39 40 39 38
43 35 43 38 40 40 41 41 32 30 24 19 35 36 42 48 55 59 49 49 47 47 49 49 47 45 42 41 41 41 41 43 43 42 44 44 43 43 40 36 38 38 37 36
45 39 37 40 37 40 35 35 36 37 33 31 28 36 55 51 47 46 46 48 48 51 53 51 50 46 44 42 40 40 40 41 41 41 42 41 40 41 40 38 38 38 36 35
44 39 32 35 40 42 40 39 40 33 30 35 37 38 57 56 56 55 57 56 49 50 51 50 50 51 47 44 41 41 40 41 42 42 41 40 41 40 40 39 38 38 35 35
42 33 31 33 34 34 34 40 41 42 39 32 28 34 54 55 55 57 56 50 51 49 51 52 50 49 50 47 44 42 42 42 42 39 39 40 40 38 39 40 38 36 36 34
44 40 35 29 37 39 34 36 39 39 33 33 35 38 45 48 50 55 58 57 55 49 47 43 44 44 45 45 45 43 43 41 38 37 39 39 38 38 39 40 37 35 35 34
37 32 34 34 35 34 32 32 35 36 40 33 36 37 43 49 48 43 40 41 39 39 39 40 40 41 42 42 43 43 43 40 38 38 38 38 39 38 38 37 35 34 34 34
36 26 31 28 34 35 32 34 34 33 34 34 36 37 34 31 31 32 34 35 35 36 38 39 40 41 40 40 41 41 42 40 36 35 37 39 37 36 36 36 34 33 33 32
30 28 24 22 31 29 23 31 35 38 39 32 28 24 28 27 28 30 32 34 34 37 38 38 37 38 38 39 39 39 39 38 37 35 37 34 34 34 34 34 32 31 30 30
28 27 23 19 21 9 28 33 29 28 25 26 25 24 27 28 31 34 34 34 35 36 35 37 36 36 36 37 37 37 36 36 35 34 34 29 30 32 30 30 29 29 30 28
32 27 11 9 8 23 29 23 20 19 20 24 22 25 28 29 31 33 37 36 34 35 35 35 35 35 35 36 35 34 33 34 33 32 32 28 27 29 27 27 27 28 27 27
30 31 23 17 11 8 20 23 29 31 16 26 26 25 24 26 18 26 33 32 31 34 34 33 34 35 34 34 35 33 32 31 32 33 31 27 25 24 26 27 26 26 26 26
6 3 5 4 13 16 23 28 30 13 13 26 26 27 27 25 27 31 32 32 32 30 31 33 32 31 31 32 32 31 32 32 33 29 25 23 22 24 24 22 22 23 24 24
12 4 -0 -1 -4 4 26 25 20 24 28 28 27 26 23 26 27 28 29 29 30 29 30 30 28 27 29 30 29 29 29 33 31 26 24 24 25 20 21 22 21 22 22 21
11 17 12 13 12 27 29 26 31 32 29 26 25 26 26 25 25 25 25 25 26 26 26 27 26 26 27 27 27 26 28 29 31 30 26 24 25 24 24 24 22 21 22 21
24 29 19 16 27 27 29 32 31 30 27 27 26 23 24 22 23 23 23 23 23 23 23 24 22 20 21 23 24 23 24 25 27 28 28 25 23 23 22 23 22 21 20 20
23 22 19 21 27 29 30 32 31 29 27 25 25 24 23 22 20 21 20 20 21 21 21 21 18 18 17 18 18 19 20 20 19 22 26 26 22 22 21 22 21 22 23 23
27 24 21 18 30 28 30 32 28 25 23 22 21 20 22 21 19 19 17 19 18 17 17 15 15 14 13 13 12 13 14 15 15 16 19 25 24 22 21 20 20 27 27 27

GFSCGP_sfc_temp_024.txt.gz
Temp
46 42 41 50 46 45 40 39 38 45 50 42 47 49 52 57 57 57 59 60 57 60 66 66 58 54 51 49 52 51 49 51 49 47 44 43 45 43 43 44 44 43 42 41
41 37 49 47 44 44 43 41 40 48 51 43 44 46 52 54 56 60 61 61 63 64 62 63 56 51 48 51 51 51 51 50 50 50 50 49 49 46 47 44 42 43 40 40
44 45 48 46 42 43 40 37 43 42 43 41 39 42 44 49 52 57 59 60 60 60 61 62 57 47 47 46 48 51 51 51 51 51 49 38 38 36 37 37 40 41 41 39
41 47 46 40 41 45 43 45 45 42 36 33 40 34 45 56 56 50 55 55 52 54 56 54 53 49 49 49 48 50 50 50 50 49 48 47 48 45 45 46 44 41 41 40
43 42 40 40 44 44 43 44 41 36 33 31 31 31 36 43 44 50 52 54 54 52 52 54 54 53 51 49 45 47 46 48 49 49 48 47 49 49 43 44 41 39 38 38
42 43 45 46 45 45 44 39 37 32 32 26 35 36 35 40 46 48 52 54 53 55 54 52 51 49 48 45 43 42 43 45 47 47 48 47 48 43 39 38 39 38 37 37
37 40 42 45 40 40 40 37 29 25 22 29 35 31 44 47 51 52 55 55 53 50 50 49 52 52 47 45 40 40 41 41 43 43 45 45 47 41 42 39 40 37 37 36
34 38 42 44 44 41 37 39 29 22 21 35 31 30 42 49 52 50 47 51 48 49 48 49 50 47 45 43 40 39 39 40 40 40 42 42 43 42 43 40 41 40 40 40
35 34 39 41 41 45 35 35 40 33 22 21 38 44 47 45 45 44 48 47 47 48 48 50 49 47 44 42 40 39 39 39 39 39 41 40 42 41 41 38 37 39 38 39
43 35 41 38 40 37 40 41 33 31 24 19 33 32 39 46 51 51 47 45 47 48 48 49 48 48 46 43 40 39 39 39 39 39 41 43 42 42 40 36 37 37 38 37
44 38 36 37 36 38 35 35 36 37 33 28 26 34 51 46 42 43 43 47 48 51 52 49 47 47 47 46 42 38 37 37 38 37 38 39 39 38 36 36 38 38 37 36
43 38 32 36 42 42 41 40 40 33 30 32 36 36 55 52 52 48 45 40 39 39 39 40 41 42 42 43 43 43 42 38 38 39 37 36 37 35 36 38 38 38 37 36
41 34 30 29 33 33 33 37 41 41 39 30 26 31 53 54 50 32 37 37 38 39 39 40 40 41 41 41 41 42 42 42 42 37 36 35 36 35 37 39 38 38 37 35
44 37 33 29 35 38 32 36 36 33 27 30 30 32 39 35 30 30 34 35 36 37 38 39 39 39 40 41 40 40 40 41 40 39 36 36 35 37 39 39 37 35 36 35
36 30 34 34 32 31 31 30 31 30 33 27 31 33 37 27 28 31 34 35 35 36 37 38 37 37 37 38 38 39 39 38 38 36 37 37 38 38 38 36 35 34 35 36
33 24 28 25 31 32 29 31 32 32 33 33 34 33 29 30 32 32 31 32 32 35 36 36 36 36 36 35 35 35 37 36 35 35 35 36 36 35 34 34 34 33 33 35
28 22 16 18 28 23 18 25 30 31 33 26 23 22 25 26 28 30 31 32 32 31 33 34 35 35 34 35 35 34 34 35 34 34 35 34 34 33 33 32 30 32 32 33
26 23 15 15 10 -1 25 27 26 24 24 24 22 22 25 26 29 29 33 30 29 29 30 31 32 34 34 35 35 35 34 33 32 32 33 33 33 32 32 29 30 31 32 31
30 25 8 4 -2 19 26 22 20 18 18 22 23 27 28 28 26 28 34 32 29 28 30 30 30 31 31 31 32 30 30 31 31 32 32 31 30 30 31 29 29 30 30 29
27 27 20 1 11 2 17 21 27 26 7 20 20 21 20 24 13 24 30 31 31 31 30 28 28 28 28 29 29 27 27 27 28 30 31 32 29 28 27 29 27 28 28 29
3 0 8 8 5 9 22 26 28 7 12 20 21 23 24 21 22 28 30 28 29 29 30 31 30 28 29 30 28 26 26 25 28 28 26 27 30 30 27 25 22 22 26 26
12 2 -2 -7 -4 -1 22 23 17 22 27 24 25 26 25 27 28 28 28 27 27 26 26 27 24 25 27 27 26 24 24 27 27 25 23 24 29 30 28 24 22 24 24 22
9 15 7 11 10 24 22 26 33 31 27 29 27 28 27 26 25 26 25 25 25 25 25 24 21 22 24 24 23 20 22 23 21 21 21 22 22 24 28 25 24 22 22 21
23 27 20 21 26 27 31 33 32 31 29 31 28 24 24 22 24 23 23 24 23 23 22 22 20 19 19 20 19 18 19 19 16 14 15 17 18 21 26 25 25 23 22 21
23 22 18 21 27 29 31 32 33 32 31 26 25 24 23 22 21 21 20 20 20 21 20 20 18 17 16 17 16 15 14 12 10 11 12 13 15 16 20 25 24 24 25 25
28 24 20 18 29 28 29 33 30 27 25 23 21 20 22 21 19 19 17 18 17 17 17 15 14 13 12 12 10 10 10 8 7 7 8 10 12 13 16 20 24 28 29 29

GFSCGP_sfc_temp_027.txt.gz
Temp
46 42 40 48 46 44 41 40 39 43 50 45 49 50 53 56 55 57 60 61 60 60 65 65 61 60 57 54 54 54 52 53 53 51 49 48 48 49 49 50 50 49 50 48
42 37 46 46 44 44 42 41 41 46 49 43 43 47 54 56 57 59 60 61 60 59 61 60 59 57 56 55 52 53 53 53 52 53 53 54 53 52 51 50 49 49 48 47
42 45 47 45 42 43 39 38 42 41 43 43 40 41 44 50 51 55 57 58 58 57 58 59 57 56 54 52 51 52 52 52 52 53 52 45 47 45 46 46 46 46 46 45
41 45 45 40 41 43 40 45 44 41 37 34 41 34 45 56 56 55 54 54 53 55 55 56 55 54 53 53 51 50 51 51 51 52 50 49 51 48 49 50 47 46 45 45
43 41 39 39 43 43 42 43 40 38 35 33 34 32 39 43 46 51 56 55 55 56 54 54 55 54 53 51 49 48 48 49 50 50 51 48 49 51 47 50 45 45 43 44
41 44 44 45 43 44 43 39 38 33 33 27 35 36 36 42 47 49 54 55 54 53 52 53 53 52 51 48 46 45 46 46 47 48 49 47 49 46 44 43 43 42 42 42
38 39 42 44 40 41 42 37 30 27 24 29 35 32 41 48 49 51 53 54 51 50 51 51 53 51 50 48 46 44 43 44 45 45 46 46 47 47 45 44 44 41 41 41
33 36 40 43 45 42 38 40 32 24 22 34 31 31 41 48 51 49 51 51 49 50 49 49 47 46 46 45 44 44 41 42 43 43 44 44 45 46 45 44 45 43 43 43
35 33 40 41 41 44 37 37 42 33 24 22 35 41 46 45 48 48 46 47 42 42 42 42 43 43 43 43 42 42 41 41 42 42 42 42 42 43 43 42 42 43 44 43
41 33 40 40 39 39 42 43 34 32 23 22 33 32 37 44 48 42 35 36 38 39 39 40 41 41 42 43 43 43 43 41 41 41 41 41 41 42 42 39 39 40 42 42
42 37 38 38 35 38 36 36 37 37 33 26 25 34 46 40 32 32 34 36 36 37 38 39 40 41 42 42 42 42 41 41 41 41 40 40 40 40 40 39 39 40 40 39
43 38 32 36 42 42 42 39 40 34 32 34 35 36 53 34 35 34 34 36 36 37 38 39 40 40 40 40 41 41 40 40 40 40 39 39 39 38 38 38 39 39 38 38
41 34 29 30 34 34 35 36 39 39 37 30 27 31 45 41 34 33 32 34 36 37 38 39 39 39 39 38 38 39 39 39 39 38 38 38 39 38 37 38 39 38 38 37
42 34 32 28 34 35 31 33 35 33 26 28 28 30 38 43 33 32 33 34 35 37 38 38 38 38 38 39 38 38 38 38 37 37 36 37 37 37 38 38 38 37 38 38
36 30 33 35 34 31 29 28 29 27 30 25 29 29 36 31 28 31 34 34 34 34 35 36 36 37 37 37 37 37 37 36 36 35 35 35 36 36 36 36 37 37 36 37
32 25 26 19 30 31 27 29 29 30 31 32 32 31 29 30 31 30 31 33 32 33 33 33 34 34 34 34 33 34 35 34 34 33 33 34 34 34 34 35 35 35 35 34
26 24 19 19 27 22 18 24 30 29 26 26 24 24 21 22 28 29 29 29 30 30 31 30 31 31 31 31 31 31 31 31 31 31 32 33 32 31 32 33 33 33 33 34
28 24 12 12 6 -2 24 25 26 26 25 21 17 18 22 25 28 29 30 29 31 32 31 31 30 29 30 30 29 30 29 29 29 28 29 31 31 30 31 30 30 32 32 32
29 24 4 2 -2 15 24 22 21 19 18 21 19 22 26 28 26 25 30 32 31 30 31 31 31 29 28 28 28 27 27 27 27 27 28 29 28 26 27 28 29 30 30 30
26 26 16 -7 -1 -4 17 20 25 24 8 14 15 19 20 24 13 23 30 32 30 30 30 29 30 28 29 28 26 26 26 25 25 27 27 27 25 23 24 27 29 29 29 28
2 4 13 13 9 10 22 25 27 6 12 20 18 23 23 21 25 30 30 29 29 28 28 29 27 26 27 27 25 24 24 23 25 25 24 23 23 22 24 26 25 27 27 28
12 1 -5 -8 -6 1 20 22 16 22 28 25 24 27 25 28 30 30 30 28 27 26 27 27 24 25 26 25 23 22 21 24 23 21 20 19 18 19 20 19 21 25 26 25
10 15 9 12 10 23 22 25 32 32 28 29 28 29 28 28 29 28 25 25 26 25 25 25 22 22 23 24 22 18 21 21 19 16 14 14 15 15 16 16 18 21 26 24
22 25 19 21 26 26 30 33 33 32 30 31 30 27 25 24 24 23 23 23 23 23 22 22 20 19 19 20 20 18 18 17 13 10 11 11 11 11 13 15 17 18 22 24
24 21 18 21 26 28 30 31 32 33 31 26 24 24 23 22 20 22 20 19 20 20 19 18 17 16 15 16 15 14 13 11 8 8 8 8 8 8 10 13 14 16 21 25
27 24 20 18 29 28 29 32 28 27 23 21 20 19 21 20 18 18 16 17 16 14 14 12 11 10 9 9 8 8 8 7 4 3 4 5 5 6 8 8 10 18 22 25

GFSCGP_sfc_temp_030.txt.gz
Temp
60 57 52 60 61 62 57 55 54 60 64 57 57 59 63 66 67 68 70 72 74 74 76 75 74 74 73 72 70 70 68 66 66 63 62 62 61 61 62 64 62 62 61 59
53 51 60 60 57 54 55 52 53 59 62 55 57 56 61 65 65 67 68 71 72 72 72 73 73 72 71 69 68 66 66 66 65 64 64 64 64 63 63 62 61 61 59 59
55 60 57 54 54 52 55 51 53 53 56 57 53 55 57 65 64 67 67 68 67 66 70 71 69 67 66 64 63 63 64 64 64 63 63 62 61 62 60 59 58 57 58 57
53 57 53 50 51 54 49 59 53 50 48 46 53 44 57 64 66 66 66 65 66 67 67 66 64 61 60 58 59 61 61 61 61 61 60 58 58 58 60 59 58 57 55 56
54 50 48 48 52 54 51 52 50 48 47 44 49 44 57 58 57 64 63 63 62 61 60 57 57 56 56 55 55 56 58 58 59 59 59 57 56 60 62 61 57 55 53 54
53 53 53 55 52 53 52 52 51 46 46 39 51 47 51 57 59 61 61 59 56 55 54 53 53 53 52 52 52 53 56 54 55 56 57 56 55 55 56 54 53 53 52 52
52 54 53 53 50 49 51 47 39 39 38 39 46 44 51 59 61 57 54 51 50 51 50 49 49 49 49 49 49 50 50 50 53 53 54 55 54 55 54 54 52 53 51 50
41 41 49 52 52 51 47 47 33 27 33 39 46 39 52 60 54 50 49 49 49 48 48 48 48 49 48 48 48 49 48 48 49 50 51 52 53 53 54 55 54 54 53 53
42 42 50 48 51 52 45 41 50 36 34 30 42 50 54 52 48 47 46 47 46 46 46 46 48 48 48 48 48 47 47 47 47 47 48 48 50 50 51 52 53 53 54 54
42 34 47 49 49 50 49 51 39 40 26 25 38 43 46 47 43 44 44 43 44 46 46 47 47 47 48 48 49 49 48 46 46 46 47 47 47 47 48 49 48 49 51 51
45 40 44 45 44 45 43 40 41 37 32 28 27 39 52 45 41 41 42 43 43 44 45 46 47 48 48 48 47 47 47 45 45 45 45 45 46 45 46 46 47 47 48 49
46 41 34 41 52 50 47 45 43 34 31 34 35 37 53 43 40 40 39 40 42 43 45 46 46 46 46 46 46 45 45 44 44 44 43 44 45 44 44 44 45 45 45 46
41 36 31 34 42 41 39 43 43 44 39 32 30 36 43 41 38 38 37 38 40 41 43 44 44 44 44 44 44 44 44 43 42 42 42 42 41 41 41 42 42 43 44 44
42 34 32 28 32 36 33 34 33 32 28 29 31 33 41 45 45 39 37 38 39 39 40 42 42 42 43 42 42 42 43 42 40 41 40 39 39 39 40 40 40 40 41 41
38 30 35 36 37 37 34 32 33 30 32 25 32 31 37 41 33 34 37 38 38 38 38 39 39 40 41 41 41 41 41 40 39 38 38 38 38 39 38 38 37 38 38 38
34 29 31 26 34 34 28 30 32 32 33 33 34 33 44 36 37 37 38 37 36 38 38 38 38 38 38 38 37 37 39 38 36 35 35 36 36 36 35 35 34 35 36 37
29 28 26 22 32 28 20 28 34 37 40 39 31 33 30 31 36 38 38 38 37 38 39 39 38 38 38 38 38 37 37 37 34 33 32 32 33 32 32 32 32 33 34 35
30 27 26 20 18 11 30 35 34 33 33 29 27 28 31 33 38 38 39 38 38 39 39 40 39 40 39 39 38 37 36 34 32 31 30 31 31 30 31 30 30 31 34 34
33 29 22 16 18 24 29 32 29 27 30 30 29 30 34 36 35 36 41 40 39 41 41 39 39 38 37 36 36 34 32 32 32 31 31 31 30 27 27 24 27 30 31 32
29 30 23 9 11 11 28 29 33 31 21 24 26 29 30 32 24 32 41 42 40 41 39 37 37 36 35 34 33 30 30 29 29 30 30 30 29 25 23 25 24 26 27 27
18 18 17 18 15 22 31 31 33 17 23 29 29 30 31 28 33 38 40 40 40 38 36 36 35 32 32 32 30 27 27 27 29 29 28 27 26 24 23 22 23 22 22 23
22 18 14 11 11 11 29 28 23 32 35 35 35 35 33 35 36 37 38 38 38 34 33 32 29 29 30 29 27 25 24 27 26 25 23 22 21 21 21 18 18 18 19 19
18 25 21 19 22 32 30 32 37 39 35 36 35 36 36 34 35 36 35 32 31 30 28 28 25 24 25 26 24 20 22 22 20 17 15 15 16 16 16 14 14 16 17 17
28 33 23 24 30 32 36 38 39 39 36 37 37 35 33 31 31 27 26 27 26 25 24 23 21 19 18 19 18 17 17 16 12 10 11 11 11 11 12 13 14 13 14 15
29 29 25 24 30 33 35 37 38 38 38 33 29 28 28 26 24 24 22 21 22 21 20 18 15 14 13 14 12 11 11 9 7 6 7 7 8 7 8 10 11 12 14 16
32 28 24 22 33 32 33 38 39 34 33 27 25 24 23 21 20 20 18 19 17 15 14 12 11 10 9 8 7 7 7 5 3 3 4 5 5 6 7 7 8 13 15 18

GFSCGP_sfc_temp_033.txt.gz
Temp
63 58 55 62 66 64 62 58 57 62 68 64 62 62 65 70 72 72 75 76 76 75 77 75 72 73 72 72 72 73 73 73 71 69 67 66 66 67 68 68 68 68 66 64
56 53 63 66 64 58 58 55 55 62 67 63 60 58 63 67 70 72 73 73 73 73 70 68 66 64 64 63 65 67 68 70 69 69 68 68 68 68 68 67 66 66 64 63
54 61 65 59 59 56 57 55 56 55 60 61 58 56 62 70 73 72 70 70 70 65 63 62 60 59 59 58 60 62 63 65 67 67 66 65 65 65 64 63 63 63 62 61
57 59 55 56 54 57 50 61 57 53 51 47 57 44 57 65 68 64 64 62 62 60 59 58 57 55 55 55 58 60 60 61 62 63 62 60 60 59 62 62 62 61 60 60
55 54 53 52 55 59 53 56 54 52 49 49 51 46 56 66 60 59 60 58 56 55 55 54 54 54 54 54 54 57 57 57 58 60 59 59 57 58 60 63 60 58 57 57
56 60 56 57 59 58 58 54 55 55 50 41 53 51 53 58 59 58 55 54 53 54 54 54 54 54 52 53 53 53 54 54 55 56 57 56 56 55 55 56 55 55 56 55
56 55 63 58 53 56 52 49 40 39 39 39 51 46 53 60 59 59 52 51 51 52 51 51 51 51 51 50 51 52 51 50 52 52 53 53 53 54 54 55 54 54 53 52
46 45 56 56 54 52 50 51 40 29 33 39 46 39 52 57 53 53 53 52 51 50 50 50 50 50 50 50 50 50 49 49 50 51 50 51 51 51 53 54 54 54 54 55
45 45 53 53 55 54 49 43 52 35 34 31 42 51 60 51 50 51 50 50 49 49 50 50 50 50 50 49 49 49 48 48 48 48 49 49 49 48 48 49 51 52 53 53
47 37 51 52 52 53 48 50 39 38 27 27 39 43 47 49 48 49 47 47 47 49 49 49 49 49 50 50 50 49 49 46 47 47 47 48 47 48 48 48 47 47 49 50
49 40 44 49 46 46 46 41 42 42 38 30 30 39 58 47 49 46 45 45 46 46 47 48 48 49 49 49 49 48 47 46 45 45 45 45 45 46 46 45 45 45 45 46
49 43 35 42 52 55 51 46 46 35 33 36 35 37 59 47 46 45 44 44 44 45 46 47 47 47 47 46 46 46 46 44 44 45 44 44 44 44 44 43 43 42 42 43
44 38 30 35 46 45 38 40 38 37 34 30 28 34 47 45 42 41 41 41 42 42 44 45 46 45 45 44 44 45 44 44 43 42 43 43 42 41 41 41 41 41 41 41
44 35 32 29 37 43 36 38 38 33 29 31 31 33 43 47 46 43 43 42 42 42 42 43 43 44 44 44 44 44 44 44 42 41 41 39 39 39 40 40 39 38 39 39
43 30 36 37 39 38 34 33 36 35 36 30 34 35 41 44 44 40 41 41 41 41 41 41 40 41 42 42 43 43 43 43 42 39 38 37 38 38 37 36 36 35 36 36
37 29 33 27 35 36 32 36 37 37 36 36 36 36 48 44 42 42 42 41 40 41 42 42 42 41 41 41 41 41 41 40 39 36 35 36 35 34 34 34 33 33 33 34
33 30 27 22 33 31 23 28 33 35 39 39 33 36 33 36 38 39 40 40 40 41 42 42 42 42 41 41 41 40 40 39 36 34 34 33 33 32 32 33 32 31 31 32
32 29 27 22 24 13 32 43 38 34 36 37 32 30 33 35 39 40 42 40 39 41 42 43 43 43 41 41 40 40 38 36 34 32 32 32 32 31 32 31 31 30 31 30
37 32 24 18 19 26 31 35 34 32 31 35 32 33 35 37 38 38 44 45 42 43 42 43 43 41 40 39 38 34 33 33 32 31 31 31 31 29 29 27 28 28 27 27
33 34 26 20 13 12 30 32 36 34 21 30 30 31 32 34 25 33 42 42 42 43 43 41 40 38 37 35 33 31 30 29 29 30 30 30 29 27 25 26 25 26 24 24
22 22 18 19 17 23 35 35 36 18 24 31 32 33 33 30 34 38 41 41 42 41 40 39 37 33 32 31 29 27 27 26 28 27 26 25 25 23 23 23 23 22 21 21
23 20 18 20 15 12 33 30 24 33 36 34 36 38 35 37 39 39 40 40 40 36 35 32 29 28 29 28 25 22 21 24 23 21 19 17 17 17 18 16 16 16 16 14
19 27 23 24 24 35 33 35 39 39 36 37 37 38 38 37 37 38 38 37 34 31 29 28 24 23 24 23 21 17 18 18 16 12 9 9 11 11 11 10 10 11 12 11
30 36 27 26 31 33 37 39 40 40 38 39 40 38 37 35 35 31 29 29 28 26 25 23 20 18 17 18 17 15 14 13 9 6 6 7 6 7 8 9 9 8 8 8
32 33 28 27 32 34 36 38 38 39 39 38 37 34 33 32 28 27 25 23 24 23 21 19 16 15 14 14 12 11 10 8 5 5 5 5 6 6 7 8 8 8 9 10
33 30 26 24 34 33 35 39 40 37 37 37 35 28 27 25 24 24 21 21 19 17 16 13 13 11 10 9 8 8 8 6 4 3 4 5 5 6 6 6 6 13 14 16

GFSCGP_sfc_temp_036.txt.gz
Temp
57 50 46 53 56 57 52 49 48 54 61 56 55 55 58 63 63 63 64 62 60 59 59 58 57 57 56 57 58 59 59 60 59 56 54 54 54 55 56 57 59 58 57 56
50 45 56 59 57 54 52 47 47 54 59 54 52 51 58 62 61 61 59 59 58 56 55 55 53 52 52 53 54 55 57 57 57 56 56 55 54 54 55 57 57 57 56 55
49 55 60 56 53 51 51 48 48 46 51 53 48 45 51 59 59 59 58 55 54 52 50 50 50 48 49 49 51 53 53 54 55 54 55 54 53 52 51 53 52 54 55 53
52 55 53 50 50 52 45 54 49 48 42 37 47 32 46 56 51 53 52 49 48 49 49 49 48 47 47 47 49 50 51 52 54 53 50 49 48 47 49 51 52 52 53 52
49 49 48 48 51 53 49 49 47 46 41 38 41 35 44 53 47 47 47 47 47 47 47 46 46 48 47 47 46 47 48 49 49 50 50 47 47 47 47 48 47 49 49 50
51 53 51 52 55 52 53 46 47 45 41 30 40 39 41 46 48 44 46 47 47 47 46 47 48 48 46 45 44 44 45 46 47 47 47 46 44 44 44 45 44 45 46 46
48 49 52 54 46 49 46 41 31 29 27 28 42 36 43 49 51 48 45 45 45 46 45 46 45 44 44 44 44 46 43 43 44 44 44 44 43 42 43 43 42 43 43 43
40 38 47 49 47 43 42 43 31 22 25 28 37 30 42 49 48 48 47 45 46 45 45 44 44 44 44 44 43 44 43 43 42 42 42 42 43 41 42 42 42 43 43 44
41 41 47 49 48 47 41 38 43 33 32 29 33 42 43 45 44 44 44 43 42 43 44 44 44 43 43 42 43 44 43 42 42 42 41 41 41 41 40 40 40 41 41 45
44 35 46 46 45 45 43 45 35 34 23 16 30 32 39 41 42 43 41 40 42 43 43 43 43 42 43 42 42 42 42 40 41 41 41 41 40 40 39 38 37 37 38 40
46 39 39 42 40 41 40 38 39 38 32 25 25 31 42 40 42 40 39 41 42 42 42 43 44 45 43 42 41 41 41 39 38 39 39 39 39 39 39 38 37 36 36 36
46 40 30 36 46 47 43 41 41 33 29 31 33 33 42 40 40 41 41 43 41 42 41 41 41 43 42 40 40 41 41 38 38 39 38 38 38 37 37 37 36 34 35 36
42 33 26 28 37 39 35 37 39 37 32 28 26 29 44 40 40 40 40 40 40 40 40 41 42 40 40 40 40 41 39 38 38 37 36 35 35 33 34 34 35 34 33 33
45 35 28 22 31 37 29 33 35 30 27 27 28 31 40 43 41 41 37 38 38 39 39 40 39 39 39 40 39 38 37 37 36 35 34 31 31 32 33 33 32 31 30 29
41 27 30 33 35 32 29 29 32 29 31 24 29 31 37 40 37 34 36 37 37 37 38 37 36 38 37 36 35 36 36 36 35 33 31 30 30 31 30 30 30 30 29 29
35 19 25 17 30 31 27 31 32 32 33 33 33 32 43 36 36 35 36 37 36 36 37 38 38 37 36 37 35 36 35 34 32 30 29 30 30 31 30 30 29 30 30 28
29 22 13 9 27 23 14 26 30 32 35 34 27 32 26 29 32 33 34 35 35 36 36 36 37 37 36 35 36 34 34 33 30 30 29 29 29 28 29 30 29 29 29 28
28 21 18 9 13 2 26 34 31 29 31 27 25 22 24 28 31 32 35 34 34 35 36 36 36 36 34 34 33 32 30 29 28 27 26 28 28 27 29 29 29 28 28 27
33 27 14 8 7 20 27 29 25 22 23 26 24 26 30 30 30 30 36 35 33 34 35 35 34 34 32 30 29 28 27 27 26 27 27 27 26 24 26 25 26 27 26 25
29 29 20 5 4 -1 20 25 32 29 12 21 20 20 23 26 14 22 33 34 34 36 35 33 31 30 28 27 27 25 24 24 24 25 25 24 22 20 20 20 20 21 21 21
10 9 14 16 13 14 26 28 31 10 17 24 24 25 25 22 25 31 33 34 35 33 30 28 27 25 25 25 23 21 21 20 22 20 19 18 17 14 14 14 14 14 14 15
14 8 7 6 2 6 25 25 19 26 30 27 28 29 27 30 31 32 33 32 30 28 26 26 22 22 22 21 19 18 16 19 17 16 14 11 9 9 10 8 8 9 8 8
12 20 12 16 14 27 27 28 32 33 29 30 30 31 32 30 30 31 30 28 27 23 24 22 17 18 18 18 15 13 15 14 13 8 6 5 6 6 7 5 5 5 6 5
25 29 19 20 27 29 33 34 35 34 33 33 32 31 30 29 30 28 25 26 24 22 21 18 14 14 13 11 14 8 11 11 6 3 4 5 4 4 5 6 6 5 4 4
25 25 22 22 28 31 33 34 35 35 36 35 34 32 32 29 26 26 23 20 21 20 18 15 12 12 11 11 9 5 8 5 3 3 4 4 4 3 4 5 5 6 8 8
30 27 23 21 31 30 32 35 34 32 32 31 30 27 26 27 24 22 19 19 17 14 13 11 10 8 7 6 5 5 2 1 2 2 3 3 3 3 4 3 4 11 14 16

GFSCGP_sfc_temp_042.txt.gz
Temp
48 44 41 46 46 47 43 41 41 44 51 46 46 46 52 52 48 44 43 43 43 43 46 46 46 46 46 46 47 47 48 48 50 49 49 50 50 51 55 56 58 58 58 57
44 40 50 49 48 46 43 40 40 46 49 46 45 46 42 45 44 44 43 41 42 42 43 44 44 44 43 43 45 45 46 46 47 48 47 47 47 47 48 50 53 55 56 56
42 48 51 50 46 45 43 41 40 43 44 44 41 41 41 44 44 45 43 42 42 40 40 41 42 41 42 41 41 44 45 46 45 46 48 47 46 46 47 47 47 48 49 50
44 50 49 45 45 46 40 46 45 42 38 33 40 30 38 41 39 40 39 37 37 38 40 41 40 40 40 40 41 42 43 44 45 44 43 42 41 40 40 41 43 45 45 45
44 44 44 43 46 47 43 45 43 40 36 32 33 31 36 40 36 36 36 37 37 38 38 38 38 40 40 39 39 39 42 42 42 42 42 41 40 39 40 41 40 41 42 42
45 47 47 48 47 47 47 43 40 36 34 26 33 34 33 37 39 36 37 37 39 38 38 38 39 40 38 37 37 38 39 40 40 40 40 39 38 39 38 38 38 39 40 40
41 43 45 47 42 43 42 37 29 25 23 26 34 30 36 37 39 40 36 36 36 37 37 37 37 37 37 36 36 40 38 38 39 39 39 38 37 37 37 36 35 36 36 37
35 34 43 46 44 42 38 38 27 18 21 24 32 29 34 36 38 39 38 37 37 37 37 37 37 37 36 37 36 36 36 36 36 37 36 37 38 38 37 36 36 35 35 37
34 35 42 43 43 46 38 34 38 29 29 27 29 30 35 36 35 36 36 36 36 36 37 37 37 36 36 36 36 36 36 36 36 36 36 36 38 38 37 37 38 37 37 40
41 32 40 41 42 40 39 42 31 28 14 20 26 28 30 31 33 35 34 35 36 37 37 37 36 36 36 36 35 36 36 36 36 36 36 36 35 37 36 34 35 35 35 35
40 37 34 38 36 36 34 33 34 35 28 18 15 26 36 36 36 34 35 37 37 37 37 36 36 36 37 36 37 36 36 38 37 36 37 36 35 35 35 32 32 31 32 34
41 36 25 33 37 39 37 36 35 29 25 25 26 29 40 39 38 38 38 39 38 38 37 36 36 36 36 35 35 35 35 35 34 36 37 36 35 34 32 31 32 31 31 32
41 30 17 26 33 34 33 33 34 32 28 20 24 26 38 36 36 37 37 38 37 37 34 34 34 34 33 33 33 33 33 34 34 33 32 32 31 32 32 32 31 31 30 30
44 30 27 27 29 31 27 30 31 28 18 19 26 26 31 34 35 35 36 36 34 34 34 33 32 33 33 33 33 32 32 33 32 31 31 30 29 29 29 30 29 28 28 28
38 26 30 28 30 29 28 28 29 28 29 22 30 28 35 35 33 35 35 31 32 33 32 32 32 31 32 32 32 32 32 32 31 30 29 28 28 28 27 27 27 27 27 27
33 21 25 18 30 32 27 30 29 30 31 29 30 29 40 36 33 30 32 32 32 32 32 33 33 33 33 33 32 33 31 31 30 27 28 28 28 28 28 28 27 27 27 27
29 22 18 18 25 22 15 22 30 33 31 30 25 30 23 27 32 31 31 31 32 33 34 33 34 34 34 33 33 31 29 28 28 27 25 25 26 24 24 24 24 23 22 23
28 24 23 15 10 3 25 28 29 28 30 25 22 19 23 26 28 30 31 31 32 33 33 34 33 32 32 30 28 28 28 26 25 21 19 21 21 19 21 21 19 19 19 18
33 28 18 15 6 16 27 28 25 24 22 22 21 22 28 27 27 26 32 32 32 33 34 33 32 31 28 27 27 25 24 24 22 21 20 19 17 15 16 13 15 15 14 13
28 28 21 1 2 3 19 21 26 27 12 15 15 17 21 25 14 22 30 33 33 33 32 32 29 28 26 24 24 22 20 19 18 19 19 18 15 8 10 11 10 10 10 11
8 9 19 16 12 10 23 27 28 11 18 18 18 24 22 21 26 29 32 31 32 32 31 28 26 25 23 22 20 19 17 16 17 15 15 14 12 9 8 8 8 7 6 8
13 9 6 6 6 5 23 23 20 25 27 26 26 28 25 28 30 29 30 30 31 29 26 26 22 21 20 19 17 16 14 16 13 12 10 7 4 5 7 4 4 4 4 3
15 18 11 15 14 26 24 28 33 31 28 29 29 30 29 29 29 30 29 29 29 27 25 21 18 19 18 16 15 10 13 12 10 0 -1 -1 2 4 4 2 3 2 3 2
23 24 18 17 24 25 30 34 33 32 30 31 31 30 29 28 29 29 28 28 27 22 20 17 15 15 14 13 13 9 9 9 -5 -9 -3 1 1 2 3 4 4 2 1 2
24 23 18 18 27 28 29 30 31 31 30 30 30 30 30 28 28 28 27 24 23 21 17 15 13 13 12 12 10 7 7 3 -3 -3 0 1 2 -0 2 4 4 5 7 8
28 26 22 19 32 29 30 32 32 30 30 29 29 28 28 28 28 25 23 21 18 15 13 11 11 10 10 8 7 3 -1 -2 -6 -3 0 1 2 2 3 3 3 11 14 15

GFSCGP_sfc_temp_045.txt.gz
Temp
47 43 41 44 46 44 42 39 39 42 49 45 45 45 46 45 41 39 39 39 39 40 43 44 43 43 43 44 44 45 45 46 47 46 46 49 47 51 51 53 52 54 55 56
43 40 49 48 46 44 41 38 38 44 46 45 44 44 40 41 40 40 38 37 38 39 39 41 41 41 40 41 43 43 44 44 45 46 44 45 44 45 49 49 49 49 50 51
41 47 49 48 44 42 40 39 38 42 42 41 39 40 39 39 40 40 39 39 39 37 38 38 39 37 38 38 39 42 42 43 43 45 45 45 44 43 43 43 44 44 45 45
42 48 47 43 43 45 37 45 42 40 37 33 37 29 37 37 36 36 36 34 35 36 38 38 37 37 36 36 38 40 41 41 42 42 42 40 39 37 37 38 40 41 41 41
43 43 42 42 44 46 42 44 42 39 35 32 32 30 34 35 32 33 34 35 35 36 36 36 36 37 36 36 34 37 40 40 40 40 40 39 37 37 37 38 38 38 39 40
44 46 46 46 45 46 46 41 38 34 33 25 33 33 32 34 36 34 35 35 36 36 35 36 37 37 35 35 35 35 38 37 38 39 38 37 36 36 36 35 35 36 37 38
39 41 43 46 42 42 41 37 29 25 23 26 30 30 34 35 35 38 35 34 35 36 35 35 35 35 35 34 34 37 35 35 35 36 36 36 34 34 34 33 33 33 34 35
35 33 43 45 44 40 37 38 28 18 20 24 31 28 35 34 36 38 37 36 35 35 36 35 35 34 34 35 34 34 34 34 34 34 34 34 35 34 34 34 34 34 35 36
34 35 41 42 41 44 36 33 37 28 17 23 28 31 33 34 33 34 34 34 34 35 35 35 35 34 34 33 33 34 34 33 33 34 33 34 34 35 36 35 35 35 35 38
40 32 39 40 42 39 38 40 31 28 15 13 25 27 31 29 31 32 32 33 35 36 35 35 34 34 34 34 33 33 34 33 33 33 33 33 32 33 32 31 31 31 32 33
40 37 33 37 36 36 34 33 33 33 26 17 14 25 35 35 35 33 34 36 36 36 35 34 34 34 34 34 33 33 33 33 32 32 33 32 32 32 31 30 31 30 30 31
41 36 26 33 35 35 35 35 35 30 25 24 26 30 37 36 37 37 36 38 36 37 35 34 34 34 33 33 33 33 33 33 33 33 32 32 31 31 30 30 29 29 28 30
41 31 20 27 32 32 32 34 34 31 27 22 21 26 36 34 34 36 36 36 37 36 34 33 32 32 32 32 32 32 32 32 33 32 32 32 31 30 29 29 29 29 28 28
44 31 29 30 30 32 28 31 31 27 19 22 29 29 29 33 34 34 35 35 36 34 33 31 31 31 31 32 31 31 31 31 31 31 30 30 28 29 28 28 28 27 27 26
39 29 28 28 29 28 29 28 30 28 30 26 29 30 33 34 34 35 35 34 33 32 31 32 31 30 30 30 30 31 30 30 30 29 29 28 28 28 27 26 26 26 26 26
33 23 26 27 30 31 28 29 30 31 31 29 31 31 39 35 36 34 34 34 33 32 32 32 33 32 32 32 31 32 30 30 29 27 28 28 27 27 26 25 24 24 24 23
29 26 23 26 25 24 20 25 29 30 31 33 27 34 24 29 32 32 32 32 32 32 32 32 32 32 33 32 33 30 29 28 27 27 24 24 22 20 21 21 20 20 19 19
29 27 25 18 16 13 28 27 29 29 31 26 24 21 24 27 30 31 31 30 31 33 33 33 32 32 32 31 30 28 27 26 24 20 18 19 19 16 19 17 17 16 17 15
32 28 17 19 13 21 28 27 25 25 25 25 26 24 28 27 26 26 31 31 31 32 32 33 33 32 30 28 27 25 24 24 21 20 19 17 15 12 14 10 13 13 12 11
29 29 28 10 11 10 22 22 27 28 14 17 19 20 22 25 15 25 29 32 31 33 33 32 32 29 27 25 24 22 20 19 18 19 18 16 14 6 6 10 9 10 8 10
14 18 21 15 17 14 24 27 29 13 19 19 19 24 21 21 26 29 31 30 32 32 32 30 28 27 24 22 20 19 17 16 17 15 15 13 11 6 6 6 7 6 5 7
15 13 12 11 13 9 23 24 22 26 27 26 25 27 24 27 30 30 31 30 31 30 29 29 23 22 20 20 18 17 15 16 13 13 12 8 4 3 5 -2 2 2 2 1
16 21 14 17 15 25 24 28 32 31 29 29 28 29 29 28 28 30 29 29 29 29 27 22 21 18 16 16 15 13 13 13 11 8 0 -0 2 2 3 -3 1 1 1 1
22 23 17 18 24 25 28 30 31 31 30 32 31 31 28 28 29 28 27 28 27 24 23 18 17 16 13 11 14 9 11 10 5 4 1 2 -0 -1 -1 3 3 1 0 1
23 23 18 18 26 27 29 30 32 32 31 29 29 30 29 27 27 27 27 25 25 23 18 18 18 16 12 11 8 5 7 6 4 1 2 -0 -1 -2 1 3 3 4 7 8
26 22 20 18 29 29 30 31 32 30 30 29 28 27 27 27 27 26 24 24 20 18 15 14 12 11 8 5 4 3 3 0 0 1 2 0 1 0 2 2 2 10 14 16

GFSCGP_sfc_temp_048.txt.gz
Temp
45 42 40 43 45 43 41 38 38 41 46 42 44 44 42 40 38 36 36 36 37 37 40 41 41 40 40 41 42 43 43 44 47 45 45 49 47 48 48 48 47 48 49 50
42 39 47 47 44 43 40 36 37 42 44 44 42 42 37 38 36 37 36 35 36 37 38 39 39 38 38 38 40 41 42 42 43 43 43 43 42 44 46 46 45 45 45 46
41 45 48 47 42 41 38 37 37 41 40 40 38 38 36 36 37 38 37 36 37 36 36 36 36 35 35 36 36 39 40 40 41 42 43 42 41 41 41 40 40 40 41 41
41 47 46 41 41 43 37 43 42 40 36 32 35 30 35 34 34 35 35 33 34 34 35 36 35 34 33 34 35 37 39 40 40 41 41 39 38 37 34 36 37 38 39 39
42 42 41 41 43 45 41 43 40 37 33 31 31 29 33 33 30 32 32 33 33 35 35 34 34 35 34 34 33 34 37 38 38 38 38 38 35 35 34 34 35 35 36 37
43 44 44 44 43 44 44 40 38 33 31 25 32 33 31 31 34 32 33 33 35 34 34 34 34 35 34 33 33 33 36 35 36 37 36 36 35 34 34 33 33 33 33 35
38 41 42 45 40 41 40 37 29 26 23 26 29 28 34 35 34 36 35 34 34 34 33 33 33 33 33 33 33 35 34 33 33 34 34 34 33 32 32 32 32 32 32 32
34 33 42 44 42 39 37 37 29 20 20 24 30 27 35 34 34 36 38 36 34 33 34 34 33 33 33 33 32 32 32 32 32 32 32 32 33 32 32 32 31 31 32 35
33 35 40 41 41 42 35 33 36 27 15 20 28 32 33 33 31 32 33 33 33 33 34 34 33 33 32 32 32 32 32 32 32 32 31 31 31 31 31 30 30 30 30 34
40 33 37 38 41 39 38 39 31 28 17 14 26 27 31 30 30 31 31 32 33 34 34 33 33 33 33 32 32 32 32 32 31 31 31 31 30 30 30 29 29 29 29 29
40 38 33 37 35 35 33 32 32 32 26 18 14 26 34 35 33 32 33 35 35 35 34 33 33 33 33 32 31 31 31 31 31 31 31 30 30 30 29 29 28 28 28 28
42 36 26 32 34 34 34 35 34 30 25 23 24 30 35 34 36 36 35 36 35 35 34 33 33 32 31 31 31 31 32 31 32 31 31 30 30 29 29 28 28 28 27 27
42 33 21 27 31 32 32 34 34 32 28 23 21 26 35 33 34 34 33 34 35 36 34 33 32 31 31 31 31 32 31 31 32 31 30 30 29 29 28 28 28 27 26 26
46 33 30 30 31 33 29 31 32 30 21 23 31 33 31 33 34 33 33 34 34 35 34 32 31 32 32 32 31 31 30 31 31 30 30 30 28 28 27 27 26 26 25 24
40 32 29 27 30 29 30 30 31 29 35 30 34 32 33 36 36 34 34 33 34 34 32 31 32 32 30 30 30 30 30 30 29 28 28 28 28 27 26 26 25 24 24 23
34 26 26 20 29 30 27 30 29 32 30 30 30 31 37 36 34 33 35 34 35 34 33 32 33 32 32 32 31 32 29 29 29 27 28 28 27 26 25 24 22 22 22 21
32 27 22 23 26 26 26 29 29 29 30 32 27 35 27 31 34 35 35 34 34 35 34 32 32 33 33 31 33 29 29 28 27 27 25 24 22 20 21 20 19 18 17 17
28 28 27 18 19 18 29 26 28 31 32 31 26 25 28 31 31 32 32 32 33 33 33 32 31 31 32 31 30 30 28 26 25 22 19 19 18 16 18 16 16 15 15 14
32 30 20 19 17 25 25 25 25 27 27 29 29 30 30 29 28 27 32 30 31 31 32 31 32 31 30 30 29 27 24 24 22 20 19 17 15 11 13 8 12 12 11 11
30 30 31 16 17 17 22 22 28 31 21 24 27 26 24 25 16 24 29 31 31 31 32 31 32 31 30 28 25 23 21 20 18 19 19 16 13 7 6 9 7 8 6 10
21 21 25 18 21 20 25 27 29 17 22 18 21 24 23 23 25 30 31 30 31 31 31 31 29 29 28 23 21 21 19 18 18 15 14 13 11 5 5 3 5 2 2 6
19 19 15 17 17 16 24 26 24 28 27 25 24 27 25 29 31 29 30 30 30 30 30 30 25 24 21 21 21 19 18 16 13 12 11 8 4 5 7 -5 -2 -2 -3 -3
19 23 18 22 22 25 27 29 32 32 28 28 29 29 30 29 28 29 28 28 29 27 28 22 23 21 16 18 18 16 15 13 10 5 3 3 4 5 5 -4 2 0 -4 -4
22 25 20 21 24 26 29 30 30 31 31 32 31 29 28 28 28 28 26 27 27 24 25 21 18 18 17 13 15 11 12 11 -0 -2 2 5 5 4 4 5 4 -3 -4 -1
24 24 18 19 25 27 29 30 32 31 30 28 29 30 30 27 26 27 25 24 25 25 20 18 19 19 17 13 9 5 7 4 0 1 5 5 4 2 3 4 3 3 4 5
25 22 21 17 29 29 30 32 33 30 30 29 28 26 27 27 27 25 24 25 22 20 15 14 13 11 8 8 5 1 1 1 -1 2 5 4 4 3 2 1 1 9 14 17